Location: *
(46.1333°S, 161.2167°W)
Time: 01:38:48
(UTC+00:00)

Cosmos 2298 Rocket - Visible Passes

Search period start: 24 October 2020 00:00
Search period end: 03 November 2020 00:00
Orbit: 776 x 783 km, 74.0° (Epoch: 23 October)

Date Brightness Start Highest point End Pass type
(mag) Time Alt. Az. Time Alt. Az. Time Alt. Az.
24 Oct 5.7 11:04:52 25° E 11:04:52 25° E 11:08:17 10° SE visible
24 Oct 4.5 12:45:22 45° W 12:45:55 47° WSW 12:51:08 10° SSE visible
25 Oct 6.2 10:31:53 16° ESE 10:31:53 16° ESE 10:34:01 10° SE visible
25 Oct 4.1 12:12:23 70° WSW 12:12:23 70° WSW 12:17:43 10° SSE visible
25 Oct 6.2 13:53:07 10° WSW 13:55:42 13° SW 13:58:16 10° SSW visible
26 Oct 4.2 11:39:22 69° SE 11:39:22 69° SE 11:44:11 10° SSE visible
26 Oct 5.8 13:19:52 16° WSW 13:21:46 19° SW 13:25:32 10° S visible
27 Oct 4.8 11:06:20 45° ESE 11:06:20 45° ESE 11:10:32 10° SSE visible
27 Oct 5.4 12:46:50 24° WSW 12:47:56 26° SW 12:52:27 10° S visible
28 Oct 5.4 10:33:16 29° ESE 10:33:16 29° ESE 10:36:44 10° SE visible
28 Oct 4.9 12:13:46 37° WSW 12:14:11 37° WSW 12:19:13 10° S visible
29 Oct 5.9 10:00:11 19° ESE 10:00:11 19° ESE 10:02:42 10° SE visible
29 Oct 4.4 11:40:41 55° WSW 11:40:41 55° WSW 11:45:51 10° SSE visible
29 Oct 6.4 13:22:44 10° WSW 13:24:09 11° SW 13:25:35 10° SSW visible
30 Oct 6.3 09:27:05 12° ESE 09:27:05 12° ESE 09:28:10 10° ESE visible
30 Oct 4.2 11:07:34 70° S 11:07:34 70° S 11:12:23 10° SSE visible
30 Oct 6.1 12:48:04 13° WSW 12:50:11 15° SW 12:53:20 10° SSW visible
31 Oct 4.5 10:34:26 54° ESE 10:34:26 54° ESE 10:38:49 10° SSE visible
31 Oct 5.8 12:14:55 20° WSW 12:16:18 22° SW 12:20:25 10° S visible
01 Nov 5.0 10:01:16 37° ESE 10:01:16 37° ESE 10:05:07 10° SE visible
01 Nov 5.3 11:41:45 29° WSW 11:42:30 30° WSW 11:47:16 10° S visible
02 Nov 5.5 09:28:04 25° ESE 09:28:04 25° ESE 09:31:14 10° SE visible
02 Nov 4.8 11:08:33 44° WSW 11:08:48 44° WSW 11:13:58 10° S visible
